AB1IG Weather Reports


Display with metric or nautical units.
time (UTC)temp
F
wind
direction
speed
MPH
gust
MPH
rain 1hr
in
rain 24hr
in
rain mn
in
humidity
%
barometer
mb
20260502210047 74 60 3.0 6.0 0.00 0.00 0.00 37 1016.4
20260502204551 76 113 0.0 4.0 0.00 0.00 0.00 37 1016.6
20260502203057 74 208 0.0 5.0 0.00 0.00 0.00 39 1016.9
20260502201544 74 38 1.0 4.0 0.00 0.00 0.00 38 1017.1
20260502200038 74 36 0.0 3.0 0.00 0.00 0.00 40 1017.1
20260502194544 73 15 1.0 7.0 0.00 0.00 0.00 39 1017.3
20260502193038 74 154 1.0 4.0 0.00 0.00 0.00 39 1017.3
20260502191540 72 19 0.0 5.0 0.00 0.00 0.00 41 1017.5
20260502190032 71 58 3.0 6.0 0.00 0.00 0.00 40 1017.6
20260502184538 72 30 1.0 6.0 0.00 0.00 0.00 42 1017.7
20260502183034 72 17 1.0 5.0 0.00 0.00 0.00 42 1017.9
20260502181536 70 57 2.0 5.0 0.00 0.00 0.00 42 1018.1
20260502163042 69 99 0.0 3.0 0.00 0.00 0.00 44 1018.7
20260502161520 69 311 0.0 2.0 0.00 0.00 0.00 44 1018.5
20260502151512 62 155 0.0 3.0 0.00 0.00 0.00 53 1018.8
20260502123040 52 274 0.0 1.0 0.00 0.00 0.00 67 1018.2
20260502121542 50 233 0.0 1.0 0.00 0.00 0.00 70 1017.9
20260502114544 49 141 0.0 1.0 0.00 0.00 0.00 70 1017.5
20260502113036 49 141 0.0 1.0 0.00 0.00 0.00 69 1017.6
20260502111534 50 146 0.0 2.0 0.00 0.00 0.00 70 1017.6
20260502110034 51 128 0.0 1.0 0.00 0.00 0.00 71 1017.7
20260502104530 51 149 0.0 1.0 0.00 0.00 0.00 72 1017.9
20260502103029 51 47 0.0 2.0 0.00 0.00 0.00 70 1018.2
20260502101528 51 65 2.0 9.0 0.00 0.00 0.00 69 1018.3
20260502091518 52 121 0.0 4.0 0.00 0.00 0.00 68 1016.7
20260502071507 53 239 0.0 2.0 0.00 0.00 0.00 63 1016.5
20260502070005 53 243 0.0 2.0 0.00 0.00 0.00 62 1016.5
20260502064504 53 162 0.0 3.0 0.00 0.00 0.00 62 1016.6
20260502063004 53 241 0.0 1.0 0.00 0.00 0.00 62 1016.7
20260502061502 54 241 0.0 1.0 0.00 0.00 0.00 59 1016.8
20260502060001 55 242 0.0 2.0 0.00 0.00 0.00 58 1016.8
20260502054601 55 242 0.0 2.0 0.00 0.00 0.00 57 1016.7
20260502053107 55 206 0.0 3.0 0.00 0.00 0.00 57 1016.7
20260502051601 54 198 0.0 2.0 0.00 0.00 0.00 58 1016.6
20260502050052 53 124 0.0 1.0 0.00 0.00 0.00 63 1016.6
20260502044555 53 124 0.0 1.0 0.00 0.00 0.00 62 1016.6
20260502043059 54 124 0.0 0.0 0.00 0.00 0.00 60 1016.6
20260502041553 55 124 0.0 1.0 0.00 0.00 0.00 57 1016.6
20260502040050 55 124 0.0 1.0 0.00 0.00 0.00 56 1016.6
20260502034550 56 124 0.0 1.0 0.00 0.00 0.00 55 1016.4
20260502033049 55 89 0.0 1.0 0.00 0.00 0.00 56 1016.3
20260502031552 56 89 0.0 0.0 0.00 0.00 0.00 55 1016.3
20260502030048 56 89 0.0 1.0 0.00 0.00 0.00 55 1016.1
20260502024547 57 89 0.0 0.0 0.00 0.00 0.00 52 1016.0
20260502023047 57 89 0.0 0.0 0.00 0.00 0.00 50 1015.9
20260502021549 58 89 0.0 0.0 0.00 0.00 0.00 48 1015.7
20260502020046 59 89 0.0 0.0 0.00 0.00 0.00 45 1015.6
20260502014555 60 89 0.0 1.0 0.00 0.00 0.00 44 1015.4
20260502013052 61 89 0.0 1.0 0.00 0.00 0.00 41 1015.2
20260502011549 63 64 0.0 2.0 0.00 0.00 0.00 40 1015.1
20260502010044 63 43 0.0 1.0 0.00 0.00 0.00 38 1014.8
20260502004546 64 52 1.0 3.0 0.00 0.00 0.00 36 1014.8
20260502003043 65 60 2.0 5.0 0.00 0.00 0.00 35 1014.6
20260502001543 65 44 1.0 4.0 0.00 0.00 0.00 35 1014.5
20260502000052 66 8 3.0 5.0 0.00 0.00 0.00 35 1014.5
20260501234540 66 54 0.0 7.0 0.00 0.00 0.00 36 1014.5
20260501233039 66 51 1.0 6.0 0.00 0.00 0.00 37 1014.4
20260501231544 67 49 2.0 5.0 0.00 0.00 0.00 36 1014.2
20260501230043 67 45 2.0 7.0 0.00 0.00 0.00 34 1014.2
20260501224537 67 50 1.0 8.0 0.00 0.00 0.00 35 1014.1
20260501223039 68 44 3.0 8.0 0.00 0.00 0.00 35 1014.0
20260501221536 68 46 5.0 8.0 0.00 0.00 0.00 34 1014.0
20260501220035 68 47 3.0 6.0 0.00 0.00 0.00 36 1014.0
20260501214539 68 36 3.0 8.0 0.00 0.00 0.00 35 1014.0
20260501213034 68 8 1.0 5.0 0.00 0.00 0.00 37 1014.0
20260501211532 68 36 4.0 8.0 0.00 0.00 0.00 37 1014.2